This is the latest recevied weather packets stored in our database for station/object YO2KCB-10. If no packets are shown the sender has not sent any weather packets the latest 10 day(s).
| Time | Temp. | Humidity | Pressure | Rain* | Wind** | Luminosity | Snow |
|---|---|---|---|---|---|---|---|
| 1788534858 | 33.89° C | 19% | 1018.1 hPa | - | - | - | - |
| 1788533658 | 33.89° C | 18% | 1018.2 hPa | - | - | - | - |
| 1788532458 | 34.44° C | 18% | 1018.2 hPa | - | - | - | - |
| 1788530057 | 35° C | 18% | 1018.4 hPa | - | - | - | - |
| 1788526456 | 34.44° C | 19% | 1018.6 hPa | - | - | - | - |
| 1788525269 | 34.44° C | 19% | 1018.7 hPa | - | - | - | - |
| 1788524069 | 33.89° C | 20% | 1019 hPa | - | - | - | - |
| 1788521668 | 32.22° C | 21% | 1019.6 hPa | - | - | - | - |
| 1788518068 | 30.56° C | 22% | 1019.8 hPa | - | - | - | - |
| 1788516868 | 30.56° C | 23% | 1020.1 hPa | - | - | - | - |
| 1788515668 | 30° C | 23% | 1020.1 hPa | - | - | - | - |
| 1788514467 | 29.44° C | 24% | 1020.2 hPa | - | - | - | - |
| 1788513267 | 28.89° C | 24% | 1020.4 hPa | - | - | - | - |
| 1788510867 | 27.22° C | 25% | 1020.3 hPa | - | - | - | - |
| 1788509667 | 26.67° C | 25% | 1020.1 hPa | - | - | - | - |
| 1788508466 | 25.56° C | 26% | 1020 hPa | - | - | - | - |
| 1788507266 | 25° C | 25% | 1020.1 hPa | - | - | - | - |
| 1788506066 | 24.44° C | 25% | 1019.8 hPa | - | - | - | - |
| 1788503666 | 22.78° C | 26% | 1019.7 hPa | - | - | - | - |
| 1788502466 | 22.22° C | 25% | 1019.5 hPa | - | - | - | - |
| 1788501265 | 22.22° C | 26% | 1019.6 hPa | - | - | - | - |
| 1788500065 | 21.67° C | 26% | 1019.4 hPa | - | - | - | - |
| 1788498865 | 20.56° C | 26% | 1019.3 hPa | - | - | - | - |
| 1788497665 | 20.56° C | 26% | 1019.1 hPa | - | - | - | - |
| 1788496465 | 20.56° C | 26% | 1019.1 hPa | - | - | - | - |
* Rain since midnight (hover to see other rain measurements)
** Current wind speed in m/s (hover to see current wind gust speed)